Year,Month,Day,Hour,Minute,Value (Times are PST for temperature in C)
2016,07,14,00,00,12.80
2016,07,14,00,01,12.70
2016,07,14,00,02,12.70
2016,07,14,00,03,12.70
2016,07,14,00,04,12.70
2016,07,14,00,05,12.70
2016,07,14,00,06,12.60
2016,07,14,00,07,12.60
2016,07,14,00,08,12.60
2016,07,14,00,09,12.60
2016,07,14,00,10,12.50
2016,07,14,00,11,12.50
2016,07,14,00,12,12.50
2016,07,14,00,13,12.60
2016,07,14,00,14,12.60
2016,07,14,00,15,12.60
2016,07,14,00,16,12.50
2016,07,14,00,17,12.60
2016,07,14,00,18,12.50
2016,07,14,00,19,12.50
2016,07,14,00,20,12.50
2016,07,14,00,21,12.50
2016,07,14,00,22,12.50
2016,07,14,00,23,12.50
2016,07,14,00,24,12.40
2016,07,14,00,25,12.40
2016,07,14,00,26,12.40
2016,07,14,00,27,12.40
2016,07,14,00,28,12.40
2016,07,14,00,29,12.40
2016,07,14,00,30,12.40
2016,07,14,00,31,12.40
2016,07,14,00,32,12.30
2016,07,14,00,33,12.30
2016,07,14,00,34,12.30
2016,07,14,00,35,12.30
2016,07,14,00,36,12.30
2016,07,14,00,37,12.20
2016,07,14,00,38,12.20
2016,07,14,00,39,12.20
2016,07,14,00,40,12.20
2016,07,14,00,41,12.10
2016,07,14,00,42,12.10
2016,07,14,00,43,12.10
2016,07,14,00,44,12.20
2016,07,14,00,45,12.20
2016,07,14,00,46,12.20
2016,07,14,00,47,12.20
2016,07,14,00,48,12.10
2016,07,14,00,49,12.10
2016,07,14,00,50,12.10
2016,07,14,00,51,12.10
2016,07,14,00,52,12.10
2016,07,14,00,53,12.10
2016,07,14,00,54,12.10
2016,07,14,00,55,12.10
2016,07,14,00,56,12.10
2016,07,14,00,57,12.10
2016,07,14,00,58,12.10
2016,07,14,00,59,12.10
2016,07,14,01,00,12.10
2016,07,14,01,01,12.10
2016,07,14,01,02,12.10
2016,07,14,01,03,12.10
2016,07,14,01,04,12.10
2016,07,14,01,05,12.10
2016,07,14,01,06,12.10
2016,07,14,01,07,12.10
2016,07,14,01,08,12.10
2016,07,14,01,09,12.10
2016,07,14,01,10,12.10
2016,07,14,01,11,12.00
2016,07,14,01,12,12.00
2016,07,14,01,13,12.00
2016,07,14,01,14,11.90
2016,07,14,01,15,11.90
2016,07,14,01,16,11.90
2016,07,14,01,17,11.90
2016,07,14,01,18,11.80
2016,07,14,01,19,11.80
2016,07,14,01,20,11.80
2016,07,14,01,21,11.80
2016,07,14,01,22,11.80
2016,07,14,01,23,11.90
2016,07,14,01,24,11.90
2016,07,14,01,25,11.90
2016,07,14,01,26,11.80
2016,07,14,01,27,11.80
2016,07,14,01,28,11.80
2016,07,14,01,29,11.80
2016,07,14,01,30,11.80
2016,07,14,01,31,11.80
2016,07,14,01,32,11.80
2016,07,14,01,33,11.80
2016,07,14,01,34,11.80
2016,07,14,01,35,11.80
2016,07,14,01,36,11.70
2016,07,14,01,37,11.70
2016,07,14,01,38,11.70
2016,07,14,01,39,11.70
2016,07,14,01,40,11.70
2016,07,14,01,41,11.60
2016,07,14,01,42,11.60
2016,07,14,01,43,11.60
2016,07,14,01,44,11.60
2016,07,14,01,45,11.60
2016,07,14,01,46,11.50
2016,07,14,01,47,11.50
2016,07,14,01,48,11.50
2016,07,14,01,49,11.50
2016,07,14,01,50,11.40
2016,07,14,01,51,11.40
2016,07,14,01,52,11.40
2016,07,14,01,53,11.40
2016,07,14,01,54,11.40
2016,07,14,01,55,11.30
2016,07,14,01,56,11.30
2016,07,14,01,57,11.30
2016,07,14,01,58,11.30
2016,07,14,01,59,11.30
2016,07,14,02,00,11.30
2016,07,14,02,01,11.30
2016,07,14,02,02,11.30
2016,07,14,02,03,11.30
2016,07,14,02,04,11.30
2016,07,14,02,05,11.30
2016,07,14,02,06,11.30
2016,07,14,02,07,11.30
2016,07,14,02,08,11.20
2016,07,14,02,09,11.20
2016,07,14,02,10,11.20
2016,07,14,02,11,11.20
2016,07,14,02,12,11.20
2016,07,14,02,13,11.20
2016,07,14,02,14,11.20
2016,07,14,02,15,11.20
2016,07,14,02,16,11.20
2016,07,14,02,17,11.20
2016,07,14,02,18,11.20
2016,07,14,02,19,11.10
2016,07,14,02,20,11.10
2016,07,14,02,21,11.10
2016,07,14,02,22,11.10
2016,07,14,02,23,11.10
2016,07,14,02,24,11.10
2016,07,14,02,25,11.10
2016,07,14,02,26,11.10
2016,07,14,02,27,11.10
2016,07,14,02,28,11.10
2016,07,14,02,29,11.10
2016,07,14,02,30,11.20
2016,07,14,02,31,11.20
2016,07,14,02,32,11.20
2016,07,14,02,33,11.20
2016,07,14,02,34,11.20
2016,07,14,02,35,11.20
2016,07,14,02,36,11.20
2016,07,14,02,37,11.20
2016,07,14,02,38,11.20
2016,07,14,02,39,11.20
2016,07,14,02,40,11.20
2016,07,14,02,41,11.20
2016,07,14,02,42,11.10
2016,07,14,02,43,11.10
2016,07,14,02,44,11.10
2016,07,14,02,45,11.10
2016,07,14,02,46,11.10
2016,07,14,02,47,11.10
2016,07,14,02,48,11.10
2016,07,14,02,49,11.10
2016,07,14,02,50,11.10
2016,07,14,02,51,11.10
2016,07,14,02,52,11.10
2016,07,14,02,53,11.10
2016,07,14,02,54,11.10
2016,07,14,02,55,11.10
2016,07,14,02,56,11.00
2016,07,14,02,57,11.00
2016,07,14,02,58,11.00
2016,07,14,02,59,10.90
2016,07,14,03,00,10.90
2016,07,14,03,01,10.90
2016,07,14,03,02,10.80
2016,07,14,03,03,10.80
2016,07,14,03,04,10.80
2016,07,14,03,05,10.80
2016,07,14,03,06,10.80
2016,07,14,03,07,10.80
2016,07,14,03,08,10.80
2016,07,14,03,09,10.80
2016,07,14,03,10,10.80
2016,07,14,03,11,10.80
2016,07,14,03,12,10.80
2016,07,14,03,13,10.80
2016,07,14,03,14,10.80
2016,07,14,03,15,10.80
2016,07,14,03,16,10.80
2016,07,14,03,17,10.80
2016,07,14,03,18,10.80
2016,07,14,03,19,10.80
2016,07,14,03,20,10.80
2016,07,14,03,21,10.80
2016,07,14,03,22,10.80
2016,07,14,03,23,10.80
2016,07,14,03,24,10.80
2016,07,14,03,25,10.70
2016,07,14,03,26,10.70
2016,07,14,03,27,10.70
2016,07,14,03,28,10.70
2016,07,14,03,29,10.60
2016,07,14,03,30,10.60
2016,07,14,03,31,10.60
2016,07,14,03,32,10.60
2016,07,14,03,33,10.60
2016,07,14,03,34,10.60
2016,07,14,03,35,10.60
2016,07,14,03,36,10.60
2016,07,14,03,37,10.70
2016,07,14,03,38,10.70
2016,07,14,03,39,10.70
2016,07,14,03,40,10.70
2016,07,14,03,41,10.70
2016,07,14,03,42,10.70
2016,07,14,03,43,10.70
2016,07,14,03,44,10.70
2016,07,14,03,45,10.70
2016,07,14,03,46,10.70
2016,07,14,03,47,10.70
2016,07,14,03,48,10.70
2016,07,14,03,49,10.60
2016,07,14,03,50,10.60
2016,07,14,03,51,10.60
2016,07,14,03,52,10.60
2016,07,14,03,53,10.60
2016,07,14,03,54,10.60
2016,07,14,03,55,10.60
2016,07,14,03,56,10.60
2016,07,14,03,57,10.50
2016,07,14,03,58,10.50
2016,07,14,03,59,10.50
2016,07,14,04,00,10.40
2016,07,14,04,01,10.40
2016,07,14,04,02,10.40
2016,07,14,04,03,10.40
2016,07,14,04,04,10.40
2016,07,14,04,05,10.40
2016,07,14,04,06,10.40
2016,07,14,04,07,10.40
2016,07,14,04,08,10.30
2016,07,14,04,09,10.40
2016,07,14,04,10,10.30
2016,07,14,04,11,10.30
2016,07,14,04,12,10.30
2016,07,14,04,13,10.30
2016,07,14,04,14,10.30
2016,07,14,04,15,10.30
2016,07,14,04,16,10.40
2016,07,14,04,17,10.40
2016,07,14,04,18,10.40
2016,07,14,04,19,10.40
2016,07,14,04,20,10.40
2016,07,14,04,21,10.40
2016,07,14,04,22,10.40
2016,07,14,04,23,10.40
2016,07,14,04,24,10.40
2016,07,14,04,25,10.40
2016,07,14,04,26,10.40
2016,07,14,04,27,10.40
2016,07,14,04,28,10.30
2016,07,14,04,29,10.30
2016,07,14,04,30,10.30
2016,07,14,04,31,10.30
2016,07,14,04,32,10.30
2016,07,14,04,33,10.20
2016,07,14,04,34,10.20
2016,07,14,04,35,10.20
2016,07,14,04,36,10.20
2016,07,14,04,37,10.30
2016,07,14,04,38,10.30
2016,07,14,04,39,10.30
2016,07,14,04,40,10.30
2016,07,14,04,41,10.30
2016,07,14,04,42,10.30
2016,07,14,04,43,10.30
2016,07,14,04,44,10.20
2016,07,14,04,45,10.20
2016,07,14,04,46,10.20
2016,07,14,04,47,10.20
2016,07,14,04,48,10.20
2016,07,14,04,49,10.20
2016,07,14,04,50,10.20
2016,07,14,04,51,10.20
2016,07,14,04,52,10.20
2016,07,14,04,53,10.20
2016,07,14,04,54,10.10
2016,07,14,04,55,10.10
2016,07,14,04,56,10.10
2016,07,14,04,57,10.10
2016,07,14,04,58,10.10
2016,07,14,04,59,10.10
2016,07,14,05,00,10.10
2016,07,14,05,01,10.10
2016,07,14,05,02,10.10
2016,07,14,05,03,10.10
2016,07,14,05,04,10.10
2016,07,14,05,05,10.10
2016,07,14,05,06,10.00
2016,07,14,05,07,10.00
2016,07,14,05,08,10.10
2016,07,14,05,09,10.10
2016,07,14,05,10,10.10
2016,07,14,05,11,10.10
2016,07,14,05,12,10.10
2016,07,14,05,13,10.10
2016,07,14,05,14,10.10
2016,07,14,05,15,10.10
2016,07,14,05,16,10.10
2016,07,14,05,17,10.20
2016,07,14,05,18,10.20
2016,07,14,05,19,10.20
2016,07,14,05,20,10.20
2016,07,14,05,21,10.20
2016,07,14,05,22,10.20
2016,07,14,05,23,10.20
2016,07,14,05,24,10.20
2016,07,14,05,25,10.30
2016,07,14,05,26,10.30
2016,07,14,05,27,10.30
2016,07,14,05,28,10.30
2016,07,14,05,29,10.30
2016,07,14,05,30,10.30
2016,07,14,05,31,10.30
2016,07,14,05,32,10.30
2016,07,14,05,33,10.30
2016,07,14,05,34,10.30
2016,07,14,05,35,10.30
2016,07,14,05,36,10.30
2016,07,14,05,37,10.30
2016,07,14,05,38,10.30
2016,07,14,05,39,10.30
2016,07,14,05,40,10.30
2016,07,14,05,41,10.30
2016,07,14,05,42,10.30
2016,07,14,05,43,10.30
2016,07,14,05,44,10.30
2016,07,14,05,45,10.30
2016,07,14,05,46,10.30
2016,07,14,05,47,10.30
2016,07,14,05,48,10.30
2016,07,14,05,49,10.30
2016,07,14,05,50,10.30
2016,07,14,05,51,10.30
2016,07,14,05,52,10.30
2016,07,14,05,53,10.30
2016,07,14,05,54,10.30
2016,07,14,05,55,10.30
2016,07,14,05,56,10.30
2016,07,14,05,57,10.30
2016,07,14,05,58,10.30
2016,07,14,05,59,10.20
2016,07,14,06,00,10.20
2016,07,14,06,01,10.20
2016,07,14,06,02,10.20
2016,07,14,06,03,10.20
2016,07,14,06,04,10.20
2016,07,14,06,05,10.20
2016,07,14,06,06,10.20
2016,07,14,06,07,10.20
2016,07,14,06,08,10.20
2016,07,14,06,09,10.20
2016,07,14,06,10,10.30
2016,07,14,06,11,10.30
2016,07,14,06,12,10.30
2016,07,14,06,13,10.30
2016,07,14,06,14,10.30
2016,07,14,06,15,10.30
2016,07,14,06,16,10.30
2016,07,14,06,17,10.30
2016,07,14,06,18,10.30
2016,07,14,06,19,10.30
2016,07,14,06,20,10.30
2016,07,14,06,21,10.30
2016,07,14,06,22,10.30
2016,07,14,06,23,10.30
2016,07,14,06,24,10.30
2016,07,14,06,25,10.30
2016,07,14,06,26,10.30
2016,07,14,06,27,10.30
2016,07,14,06,28,10.40
2016,07,14,06,29,10.40
2016,07,14,06,30,10.40
2016,07,14,06,31,10.40
2016,07,14,06,32,10.40
2016,07,14,06,33,10.50
2016,07,14,06,34,10.50
2016,07,14,06,35,10.50
2016,07,14,06,36,10.50
2016,07,14,06,37,10.60
2016,07,14,06,38,10.60
2016,07,14,06,39,10.60
2016,07,14,06,40,10.60
2016,07,14,06,41,10.60
2016,07,14,06,42,10.60
2016,07,14,06,43,10.60
2016,07,14,06,44,10.60
2016,07,14,06,45,10.60
2016,07,14,06,46,10.60
2016,07,14,06,47,10.60
2016,07,14,06,48,10.70
2016,07,14,06,49,10.70
2016,07,14,06,50,10.70
2016,07,14,06,51,10.70
2016,07,14,06,52,10.70
2016,07,14,06,53,10.70
2016,07,14,06,54,10.70
2016,07,14,06,55,10.70
2016,07,14,06,56,10.70
2016,07,14,06,57,10.70
2016,07,14,06,58,10.70
2016,07,14,06,59,10.70
2016,07,14,07,00,10.80
2016,07,14,07,01,10.80
2016,07,14,07,02,10.80
2016,07,14,07,03,10.80
2016,07,14,07,04,10.80
2016,07,14,07,05,10.80
2016,07,14,07,06,10.80
2016,07,14,07,07,10.80
2016,07,14,07,08,10.80
2016,07,14,07,09,10.90
2016,07,14,07,10,10.90
2016,07,14,07,11,10.90
2016,07,14,07,12,11.00
2016,07,14,07,13,11.00
2016,07,14,07,14,11.10
2016,07,14,07,15,11.10
2016,07,14,07,16,11.10
2016,07,14,07,17,11.10
2016,07,14,07,18,11.10
2016,07,14,07,19,11.10
2016,07,14,07,20,11.10
2016,07,14,07,21,11.20
2016,07,14,07,22,11.20
2016,07,14,07,23,11.20
2016,07,14,07,24,11.20
2016,07,14,07,25,11.20
2016,07,14,07,26,11.20
2016,07,14,07,27,11.20
2016,07,14,07,28,11.20
2016,07,14,07,29,11.20
2016,07,14,07,30,11.20
2016,07,14,07,31,11.20
2016,07,14,07,32,11.20
2016,07,14,07,33,11.20
2016,07,14,07,34,11.20
2016,07,14,07,35,11.30
2016,07,14,07,36,11.30
2016,07,14,07,37,11.30
2016,07,14,07,38,11.40
2016,07,14,07,39,11.40
2016,07,14,07,40,11.50
2016,07,14,07,41,11.50
2016,07,14,07,42,11.60
2016,07,14,07,43,11.60
2016,07,14,07,44,11.60
2016,07,14,07,45,11.70
2016,07,14,07,46,11.80
2016,07,14,07,47,11.90
2016,07,14,07,48,11.90
2016,07,14,07,49,12.00
2016,07,14,07,50,12.10
2016,07,14,07,51,12.20
2016,07,14,07,52,12.30
2016,07,14,07,53,12.30
2016,07,14,07,54,12.30
2016,07,14,07,55,12.30
2016,07,14,07,56,12.30
2016,07,14,07,57,12.30
2016,07,14,07,58,12.30
2016,07,14,07,59,12.30
2016,07,14,08,00,12.30
2016,07,14,08,01,12.30
2016,07,14,08,02,12.30
2016,07,14,08,03,12.30
2016,07,14,08,04,12.30
2016,07,14,08,05,12.30
2016,07,14,08,06,12.20
2016,07,14,08,07,12.20
2016,07,14,08,08,12.20
2016,07,14,08,09,12.10
2016,07,14,08,10,12.10
2016,07,14,08,11,12.10
2016,07,14,08,12,12.00
2016,07,14,08,13,12.00
2016,07,14,08,14,12.00
2016,07,14,08,15,12.00
2016,07,14,08,16,12.00
2016,07,14,08,17,12.10
2016,07,14,08,18,12.10
2016,07,14,08,19,12.20
2016,07,14,08,20,12.20
2016,07,14,08,21,12.30
2016,07,14,08,22,12.30
2016,07,14,08,23,12.30
2016,07,14,08,24,12.30
2016,07,14,08,25,12.40
2016,07,14,08,26,12.40
2016,07,14,08,27,12.40
2016,07,14,08,28,12.40
2016,07,14,08,29,12.50
2016,07,14,08,30,12.50
2016,07,14,08,31,12.60
2016,07,14,08,32,12.60
2016,07,14,08,33,12.70
2016,07,14,08,34,12.70
2016,07,14,08,35,12.80
2016,07,14,08,36,12.80
2016,07,14,08,37,12.90
2016,07,14,08,38,13.00
2016,07,14,08,39,13.10
2016,07,14,08,40,13.20
2016,07,14,08,41,13.30
2016,07,14,08,42,13.30
2016,07,14,08,43,13.40
2016,07,14,08,44,13.40
2016,07,14,08,45,13.50
2016,07,14,08,46,13.60
2016,07,14,08,47,13.60
2016,07,14,08,48,13.70
2016,07,14,08,49,13.80
2016,07,14,08,50,13.80
2016,07,14,08,51,13.80
2016,07,14,08,52,13.80
2016,07,14,08,53,13.80
2016,07,14,08,54,13.80
2016,07,14,08,55,13.80
2016,07,14,08,56,13.80
2016,07,14,08,57,13.80
2016,07,14,08,58,13.80
2016,07,14,08,59,13.80
2016,07,14,09,00,13.90
2016,07,14,09,01,13.90
2016,07,14,09,02,13.90
2016,07,14,09,03,14.00
2016,07,14,09,04,14.00
2016,07,14,09,05,14.00
2016,07,14,09,06,14.00
2016,07,14,09,07,14.10
2016,07,14,09,08,14.10
2016,07,14,09,09,14.20
2016,07,14,09,10,14.20
2016,07,14,09,11,14.20
2016,07,14,09,12,14.10
2016,07,14,09,13,14.10
2016,07,14,09,14,14.10
2016,07,14,09,15,14.10
2016,07,14,09,16,14.10
2016,07,14,09,17,14.10
2016,07,14,09,18,14.20
2016,07,14,09,19,14.20
2016,07,14,09,20,14.20
2016,07,14,09,21,14.30
2016,07,14,09,22,14.30
2016,07,14,09,23,14.30
2016,07,14,09,24,14.40
2016,07,14,09,25,14.40
2016,07,14,09,26,14.50
2016,07,14,09,27,14.50
2016,07,14,09,28,14.50
2016,07,14,09,29,14.50
2016,07,14,09,30,14.50
2016,07,14,09,31,14.60
2016,07,14,09,32,14.70
2016,07,14,09,33,14.80
2016,07,14,09,34,14.80
2016,07,14,09,35,14.80
2016,07,14,09,36,14.90
2016,07,14,09,37,14.90
2016,07,14,09,38,14.90
2016,07,14,09,39,14.90
2016,07,14,09,40,14.90
2016,07,14,09,41,14.90
2016,07,14,09,42,14.90
2016,07,14,09,43,14.80
2016,07,14,09,44,14.80
2016,07,14,09,45,14.90
2016,07,14,09,46,14.90
2016,07,14,09,47,14.80
2016,07,14,09,48,14.80
2016,07,14,09,49,14.80
2016,07,14,09,50,14.80
2016,07,14,09,51,14.90
2016,07,14,09,52,14.90
2016,07,14,09,53,14.90
2016,07,14,09,54,14.90
2016,07,14,09,55,15.00
2016,07,14,09,56,15.00
2016,07,14,09,57,15.00
2016,07,14,09,58,15.00
2016,07,14,09,59,15.10
2016,07,14,10,00,15.10
2016,07,14,10,01,15.00
2016,07,14,10,02,14.80
2016,07,14,10,03,14.70
2016,07,14,10,04,14.70
2016,07,14,10,05,14.70
2016,07,14,10,06,14.60
2016,07,14,10,07,14.60
2016,07,14,10,08,14.70
2016,07,14,10,09,14.70
2016,07,14,10,10,14.60
2016,07,14,10,11,14.70
2016,07,14,10,12,14.70
2016,07,14,10,13,14.70
2016,07,14,10,14,14.70
2016,07,14,10,15,14.70
2016,07,14,10,16,14.70
2016,07,14,10,17,14.70
2016,07,14,10,18,14.80
2016,07,14,10,19,14.80
2016,07,14,10,20,14.70
2016,07,14,10,21,14.70
2016,07,14,10,22,14.70
2016,07,14,10,23,14.70
2016,07,14,10,24,14.80
2016,07,14,10,25,14.80
2016,07,14,10,26,14.80
2016,07,14,10,27,14.80
2016,07,14,10,28,14.80
2016,07,14,10,29,14.90
2016,07,14,10,30,15.00
2016,07,14,10,31,15.00
2016,07,14,10,32,15.10
2016,07,14,10,33,15.10
2016,07,14,10,34,15.20
2016,07,14,10,35,15.20
2016,07,14,10,36,15.30
2016,07,14,10,37,15.30
2016,07,14,10,38,15.40
2016,07,14,10,39,15.40
2016,07,14,10,40,15.40
2016,07,14,10,41,15.40
2016,07,14,10,42,15.40
2016,07,14,10,43,15.40
2016,07,14,10,44,15.40
2016,07,14,10,45,15.30
2016,07,14,10,46,15.30
2016,07,14,10,47,15.30
2016,07,14,10,48,15.30
2016,07,14,10,49,15.30
2016,07,14,10,50,15.30
2016,07,14,10,51,15.30
2016,07,14,10,52,15.30
2016,07,14,10,53,15.30
2016,07,14,10,54,15.40
2016,07,14,10,55,15.40
2016,07,14,10,56,15.40
2016,07,14,10,57,15.40
2016,07,14,10,58,15.40
2016,07,14,10,59,15.50
2016,07,14,11,00,15.50
2016,07,14,11,01,15.50
2016,07,14,11,02,15.50
2016,07,14,11,03,15.50
2016,07,14,11,04,15.50
2016,07,14,11,05,15.50
2016,07,14,11,06,15.60
2016,07,14,11,07,15.60
2016,07,14,11,08,15.70
2016,07,14,11,09,15.70
2016,07,14,11,10,15.70
2016,07,14,11,11,15.70
2016,07,14,11,12,15.70
2016,07,14,11,13,15.80
2016,07,14,11,14,15.80
2016,07,14,11,15,15.80
2016,07,14,11,16,15.80
2016,07,14,11,17,15.80
2016,07,14,11,18,15.90
2016,07,14,11,19,15.90
2016,07,14,11,20,15.90
2016,07,14,11,21,15.90
2016,07,14,11,22,16.00
2016,07,14,11,23,16.10
2016,07,14,11,24,16.10
2016,07,14,11,25,16.10
2016,07,14,11,26,16.10
2016,07,14,11,27,16.10
2016,07,14,11,28,16.00
2016,07,14,11,29,15.90
2016,07,14,11,30,15.90
2016,07,14,11,31,16.00
2016,07,14,11,32,16.00
2016,07,14,11,33,16.00
2016,07,14,11,34,16.00
2016,07,14,11,35,16.00
2016,07,14,11,36,16.00
2016,07,14,11,37,16.00
2016,07,14,11,38,16.10
2016,07,14,11,39,16.20
2016,07,14,11,40,16.20
2016,07,14,11,41,16.20
2016,07,14,11,42,16.20
2016,07,14,11,43,16.20
2016,07,14,11,44,16.10
2016,07,14,11,45,16.10
2016,07,14,11,46,16.00
2016,07,14,11,47,16.00
2016,07,14,11,48,16.00
2016,07,14,11,49,16.10
2016,07,14,11,50,16.10
2016,07,14,11,51,16.10
2016,07,14,11,52,16.00
2016,07,14,11,53,16.00
2016,07,14,11,54,16.00
2016,07,14,11,55,16.00
2016,07,14,11,56,16.00
2016,07,14,11,57,16.10
2016,07,14,11,58,16.20
2016,07,14,11,59,16.30
2016,07,14,12,00,16.40
2016,07,14,12,01,16.50
2016,07,14,12,02,16.50
2016,07,14,12,03,16.60
2016,07,14,12,04,16.60
2016,07,14,12,05,16.60
2016,07,14,12,06,16.60
2016,07,14,12,07,16.60
2016,07,14,12,08,16.60
2016,07,14,12,09,16.60
2016,07,14,12,10,16.60
2016,07,14,12,11,16.60
2016,07,14,12,12,16.70
2016,07,14,12,13,16.60
2016,07,14,12,14,16.70
2016,07,14,12,15,16.70
2016,07,14,12,16,16.70
2016,07,14,12,17,16.70
2016,07,14,12,18,16.70
2016,07,14,12,19,16.70
2016,07,14,12,20,16.70
2016,07,14,12,21,16.80
2016,07,14,12,22,16.80
2016,07,14,12,23,16.90
2016,07,14,12,24,17.00
2016,07,14,12,25,17.10
2016,07,14,12,26,17.10
2016,07,14,12,27,17.10
2016,07,14,12,28,17.20
2016,07,14,12,29,17.20
2016,07,14,12,30,17.30
2016,07,14,12,31,17.30
2016,07,14,12,32,17.20
2016,07,14,12,33,17.20
2016,07,14,12,34,17.20
2016,07,14,12,35,17.10
2016,07,14,12,36,17.10
2016,07,14,12,37,17.10
2016,07,14,12,38,17.10
2016,07,14,12,39,17.20
2016,07,14,12,40,17.20
2016,07,14,12,41,17.10
2016,07,14,12,42,17.10
2016,07,14,12,43,17.10
2016,07,14,12,44,17.20
2016,07,14,12,45,17.20
2016,07,14,12,46,17.20
2016,07,14,12,47,17.20
2016,07,14,12,48,17.20
2016,07,14,12,49,17.20
2016,07,14,12,50,17.20
2016,07,14,12,51,17.20
2016,07,14,12,52,17.20
2016,07,14,12,53,17.20
2016,07,14,12,54,17.20
2016,07,14,12,55,17.10
2016,07,14,12,56,17.10
2016,07,14,12,57,17.10
2016,07,14,12,58,17.10
2016,07,14,12,59,17.20
2016,07,14,13,00,17.20
2016,07,14,13,01,17.20
2016,07,14,13,02,17.20
2016,07,14,13,03,17.20
2016,07,14,13,04,17.20
2016,07,14,13,05,17.10
2016,07,14,13,06,17.00
2016,07,14,13,07,17.00
2016,07,14,13,08,16.90
2016,07,14,13,09,16.90
2016,07,14,13,10,16.90
2016,07,14,13,11,16.90
2016,07,14,13,12,16.90
2016,07,14,13,13,16.90
2016,07,14,13,14,16.90
2016,07,14,13,15,17.00
2016,07,14,13,16,17.00
2016,07,14,13,17,16.90
2016,07,14,13,18,16.80
2016,07,14,13,19,16.80
2016,07,14,13,20,16.80
2016,07,14,13,21,16.70
2016,07,14,13,22,16.60
2016,07,14,13,23,16.60
2016,07,14,13,24,16.60
2016,07,14,13,25,16.60
2016,07,14,13,26,16.60
2016,07,14,13,27,16.70
2016,07,14,13,28,16.70
2016,07,14,13,29,16.80
2016,07,14,13,30,16.80
2016,07,14,13,31,16.80
2016,07,14,13,32,16.80
2016,07,14,13,33,16.80
2016,07,14,13,34,16.90
2016,07,14,13,35,16.90
2016,07,14,13,36,16.80
2016,07,14,13,37,16.90
2016,07,14,13,38,16.90
2016,07,14,13,39,16.90
2016,07,14,13,40,16.90
2016,07,14,13,41,16.90
2016,07,14,13,42,16.80
2016,07,14,13,43,16.70
2016,07,14,13,44,16.70
2016,07,14,13,45,16.70
2016,07,14,13,46,16.60
2016,07,14,13,47,16.60
2016,07,14,13,48,16.70
2016,07,14,13,49,16.70
2016,07,14,13,50,16.70
2016,07,14,13,51,16.70
2016,07,14,13,52,16.80
2016,07,14,13,53,16.80
2016,07,14,13,54,16.80
2016,07,14,13,55,16.90
2016,07,14,13,56,16.90
2016,07,14,13,57,16.90
2016,07,14,13,58,17.00
2016,07,14,13,59,17.00
2016,07,14,14,00,17.10
2016,07,14,14,01,17.20
2016,07,14,14,02,17.20
2016,07,14,14,03,17.30
2016,07,14,14,04,17.30
2016,07,14,14,05,17.20
2016,07,14,14,06,17.20
2016,07,14,14,07,17.20
2016,07,14,14,08,17.20
2016,07,14,14,09,17.20
2016,07,14,14,10,17.20
2016,07,14,14,11,17.30
2016,07,14,14,12,17.40
2016,07,14,14,13,17.50
2016,07,14,14,14,17.50
2016,07,14,14,15,17.60
2016,07,14,14,16,17.60
2016,07,14,14,17,17.60
2016,07,14,14,18,17.70
2016,07,14,14,19,17.80
2016,07,14,14,20,17.80
2016,07,14,14,21,17.70
2016,07,14,14,22,17.60
2016,07,14,14,23,17.40
2016,07,14,14,24,17.30
2016,07,14,14,25,17.30
2016,07,14,14,26,17.30
2016,07,14,14,27,17.30
2016,07,14,14,28,17.30
2016,07,14,14,29,17.30
2016,07,14,14,30,17.30
2016,07,14,14,31,17.40
2016,07,14,14,32,17.40
2016,07,14,14,33,17.50
2016,07,14,14,34,17.50
2016,07,14,14,35,17.50
2016,07,14,14,36,17.50
2016,07,14,14,37,17.50
2016,07,14,14,38,17.60
2016,07,14,14,39,17.60
2016,07,14,14,40,17.60
2016,07,14,14,41,17.60
2016,07,14,14,42,17.60
2016,07,14,14,43,17.70
2016,07,14,14,44,17.70
2016,07,14,14,45,17.80
2016,07,14,14,46,17.80
2016,07,14,14,47,17.80
2016,07,14,14,48,17.80
2016,07,14,14,49,17.80
2016,07,14,14,50,17.70
2016,07,14,14,51,17.70
2016,07,14,14,52,17.70
2016,07,14,14,53,17.70
2016,07,14,14,54,17.70
2016,07,14,14,55,17.70
2016,07,14,14,56,17.60
2016,07,14,14,57,17.70
2016,07,14,14,58,17.80
2016,07,14,14,59,17.80
2016,07,14,15,00,17.80
2016,07,14,15,01,17.70
2016,07,14,15,02,17.70
2016,07,14,15,03,17.70
2016,07,14,15,04,17.60
2016,07,14,15,05,17.60
2016,07,14,15,06,17.60
2016,07,14,15,07,17.60
2016,07,14,15,08,17.70
2016,07,14,15,09,17.80
2016,07,14,15,10,17.90
2016,07,14,15,11,17.90
2016,07,14,15,12,17.90
2016,07,14,15,13,17.90
2016,07,14,15,14,17.80
2016,07,14,15,15,17.70
2016,07,14,15,16,17.60
2016,07,14,15,17,17.60
2016,07,14,15,18,17.70
2016,07,14,15,19,17.70
2016,07,14,15,20,17.70
2016,07,14,15,21,17.60
2016,07,14,15,22,17.60
2016,07,14,15,23,17.60
2016,07,14,15,24,17.70
2016,07,14,15,25,17.80
2016,07,14,15,26,17.90
2016,07,14,15,27,17.90
2016,07,14,15,28,17.90
2016,07,14,15,29,17.80
2016,07,14,15,30,17.80
2016,07,14,15,31,17.80
2016,07,14,15,32,17.90
2016,07,14,15,33,17.90
2016,07,14,15,34,17.90
2016,07,14,15,35,18.00
2016,07,14,15,36,18.00
2016,07,14,15,37,18.00
2016,07,14,15,38,18.00
2016,07,14,15,39,18.00
2016,07,14,15,40,18.00
2016,07,14,15,41,18.00
2016,07,14,15,42,18.00
2016,07,14,15,43,17.90
2016,07,14,15,44,17.90
2016,07,14,15,45,17.90
2016,07,14,15,46,17.80
2016,07,14,15,47,17.70
2016,07,14,15,48,17.60
2016,07,14,15,49,17.60
2016,07,14,15,50,17.60
2016,07,14,15,51,17.60
2016,07,14,15,52,17.60
2016,07,14,15,53,17.60
2016,07,14,15,54,17.60
2016,07,14,15,55,17.60
2016,07,14,15,56,17.60
2016,07,14,15,57,17.70
2016,07,14,15,58,17.70
2016,07,14,15,59,17.70
2016,07,14,16,00,17.60
2016,07,14,16,01,17.50
2016,07,14,16,02,17.50
2016,07,14,16,03,17.50
2016,07,14,16,04,17.50
2016,07,14,16,05,17.60
2016,07,14,16,06,17.70
2016,07,14,16,07,17.70
2016,07,14,16,08,17.70
2016,07,14,16,09,17.70
2016,07,14,16,10,17.60
2016,07,14,16,11,17.50
2016,07,14,16,12,17.50
2016,07,14,16,13,17.50
2016,07,14,16,14,17.40
2016,07,14,16,15,17.40
2016,07,14,16,16,17.40
2016,07,14,16,17,17.40
2016,07,14,16,18,17.40
2016,07,14,16,19,17.40
2016,07,14,16,20,17.30
2016,07,14,16,21,17.40
2016,07,14,16,22,17.40
2016,07,14,16,23,17.30
2016,07,14,16,24,17.30
2016,07,14,16,25,17.30
2016,07,14,16,26,17.30
2016,07,14,16,27,17.30
2016,07,14,16,28,17.40
2016,07,14,16,29,17.50
2016,07,14,16,30,17.60
2016,07,14,16,31,17.60
2016,07,14,16,32,17.60
2016,07,14,16,33,17.60
2016,07,14,16,34,17.60
2016,07,14,16,35,17.50
2016,07,14,16,36,17.50
2016,07,14,16,37,17.40
2016,07,14,16,38,17.40
2016,07,14,16,39,17.50
2016,07,14,16,40,17.50
2016,07,14,16,41,17.50
2016,07,14,16,42,17.60
2016,07,14,16,43,17.60
2016,07,14,16,44,17.70
2016,07,14,16,45,17.70
2016,07,14,16,46,17.70
2016,07,14,16,47,17.80
2016,07,14,16,48,17.80
2016,07,14,16,49,17.70
2016,07,14,16,50,17.70
2016,07,14,16,51,17.70
2016,07,14,16,52,17.70
2016,07,14,16,53,17.60
2016,07,14,16,54,17.60
2016,07,14,16,55,17.60
2016,07,14,16,56,17.60
2016,07,14,16,57,17.70
2016,07,14,16,58,17.70
2016,07,14,16,59,17.70
2016,07,14,17,00,17.80
2016,07,14,17,01,17.80
2016,07,14,17,02,17.70
2016,07,14,17,03,17.70
2016,07,14,17,04,17.60
2016,07,14,17,05,17.60
2016,07,14,17,06,17.50
2016,07,14,17,07,17.50
2016,07,14,17,08,17.40
2016,07,14,17,09,17.40
2016,07,14,17,10,17.40
2016,07,14,17,11,17.40
2016,07,14,17,12,17.40
2016,07,14,17,13,17.40
2016,07,14,17,14,17.40
2016,07,14,17,15,17.40
2016,07,14,17,16,17.40
2016,07,14,17,17,17.40
2016,07,14,17,18,17.40
2016,07,14,17,19,17.40